Location: ????????
(55.7667°N, 37.4833°E)
Time: 06:58:20
(UTC+00:00)

Cosmos 1812 Rocket - Pass Details

Date: 19 May 2025
Orbit: 601 x 624 km, 82.5° (Epoch: 23 June)

Event Time Altitude Azimuth Distance (km) Brightness Sun altitude
Exits shadow 19:12:03 - 181° (S) 2,143 5.8 -9.1°
Reaches altitude 10° 19:12:32 10° 180° (S) 1,944 5.6 -9.1°
Maximum altitude 19:16:48 68° 98° (E) 652 3.5 -9.4°
Drops below altitude 10° 19:21:07 10° 16° (NNE) 1,964 6.8 -9.8°
Sets 19:23:21 0° 14° (NNE) 2,875 7.8 -9.9°
